www.pogodaiklimat.ru

Погода и климат >> Архив погоды >> Финляндия >> Эспо Нууксио


ПОГОДА в Эспо Нууксио

  • Прогноз погоды в Эспо Нууксио
  • Монитор погоды в Эспо Нууксио

АРХИВ ПОГОДЫ в Эспо Нууксио

Время (UTC), дата Ветер
(напр.,м/с)
 
Видим.   Явления Облачность Т
(С)
Тd
(С)
f
(%)
Тe
(С)
Тes
(С)
Комфортность P
(гПа)
Po
(гПа)
Тmin
(С)
Tmax
(С)
R
(мм)
R24
(мм)
S
(см)
21 11.09 ЮЗ 4 10 км 9/9 300 м
[]
+14.3 +14.2 99 +13 +13 1013.6 1002.6
00 12.09 Ю 4 15 км 8/4 300 м
[]
+13.4 +13.1 98 +12 +12 1014.3 1003.2
03 12.09 Ю 3 21 км 9/5 300 м
[]
+13.8 +13.1 96 +13 +13 1013.2 1002.1
06 12.09 Ю 5 4200 м слаб. дождь 10/10 200 м
[]
+13.3 +13.2 99 +11 +11 1012.4 1001.4 +13.0 +14.9 2
09 12.09 Ю 6 1700 м дождь 10/10 100 м
[]
+13.5 +13.5 100 +11 +11 1011.2 1000.2
12 12.09 ЮЗ 4 17 км 9/9 600 м
[]
+13.9 +13.7 99 +12 +13 1011.7 1000.6
15 12.09 ЮЗ 3 27 км 9/9 600 м
[]
+14.2 +12.7 91 +13 +13 1012.2 1001.2
18 12.09 Ю 3 16 км ясно +11.9 +11.5 97 +10 +10 1013.1 1001.9 +11.9 +15.3 11
21 12.09 Ю 3 14 км 9/9 1000 м
[]
+12.2 +12.1 99 +10 +10 1012.1 1001.0
00 13.09 ЮЗ 3 20 км 10/10 2000 м
[]
+12.5 +12.1 97 +11 +11 1010.9 999.8
03 13.09 ЮЗ 3 22 км 9/3 1500 м
[]
+11.8 +11.1 95 +10 +10 1009.6 998.5
06 13.09 ЮЗ 3 28 км 8/3 300 м
[]
+13.3 +12.0 92 +12 +12 1009.0 998.0 +11.2 +13.4
09 13.09 З 2 4800 м дождь 9/9 1000 м
[]
+11.1 +10.2 94 +10 +10 1008.9 997.8
12 13.09 З 2 24 км слаб. дождь 9/9 100 м
[]
+12.0 +11.9 99 +11 +11 1008.6 997.5
15 13.09 З 3 30 км в посл. час морось 5/5 1500 м
[]
+10.8 +10.6 99 +9 +9 1009.3 998.2
18 13.09 З 4 16 км ясно +8.4 +8.3 99 +5 +5 1011.2 999.9 +8.4 +14.5 5
21 13.09 З 4 26 км ясно +7.0 +7.0 100 +3 +3 1011.9 1000.6
00 14.09 З 3 27 км ясно +6.4 +6.4 100 +3 +3 1013.1 1001.8
03 14.09 З 2 20 км ясно +5.6 +5.5 99 +3 +3 1014.1 1002.7
06 14.09 З 3 40 км ясно +7.7 +7.7 100 +5 +6 1014.7 1003.4 +5.5 +8.4
09 14.09 З 4 50 км 9/9 600 м
[]
+12.0 +8.6 80 +10 +10 1015.2 1004.1
12 14.09 З 2 50 км в посл. час дождь 3/3 1500 м
[]
+10.1 +7.2 82 +9 +12 1015.4 1004.2
15 14.09 З 5 50 км 3/3 1000 м
[]
+11.0 +6.8 75 +8 +9 1015.3 1004.1
18 14.09 З 3 45 км 9/9 1000 м
[]
+8.2 +6.5 89 +5 +5 1016.3 1005.0 +7.7 +14.3 0.8
21 14.09 Ю 1 35 км ясно +4.8 +4.6 99 +3 +3 1015.5 1004.1
00 15.09 Ю 2 22 км 9/5
[]
+4.5 +4.4 99 +2 +2 1012.4 1001.0
03 15.09 ЮВ 2 7000 м слаб. дождь 10/10 600 м
[]
+7.8 +7.7 99 +6 +6 1007.1 995.9
06 15.09 Ю 2 3800 м слаб. дождь 10/10 100 м
[]
+9.5 +9.5 100 +8 +8 1000.3 989.2 +4.3 +9.5 6
09 15.09 ЮЗ 4 5000 м морось 10/10 100 м
[]
+11.1 +11.1 100 +9 +9 993.8 982.8
12 15.09 ЮЗ 4 3200 м ливневой дождь 10/10 100 м
[]
+11.7 +11.7 100 +9 +9 989.3 978.5
15 15.09 ЮЗ 4 13 км 4/4 1500 м
[]
+10.6 +10.6 100 +8 +8 989.1 978.2
18 15.09 ЮЗ 4 13 км ясно +8.8 +8.8 100 +5 +5 990.4 979.4 +8.8 +12.2 8
21 15.09 ЮЗ 3 35 км 3/3 1500 м
[]
+7.2 +7.1 99 +4 +4 990.3 979.3
00 16.09 ЮЗ 3 17 км 5/0
[]
+6.0 +6.0 100 +2 +2 989.7 978.6
03 16.09 ЮЗ 1 16 км ясно +4.7 +4.7 100 +3 +3 989.5 978.3
06 16.09 З 3 35 км 5/5 1000 м
[]
+8.1 +8.1 100 +5 +6 989.6 978.6 +4.3 +8.8
09 16.09 З 4 50 км слаб. ливневой дождь 10/10 600 м
[]
+10.5 +8.5 87 +8 +8 990.9 980.0
12 16.09 СЗ 4 50 км 10/10 600 м
[]
+11.4 +7.7 78 +9 +9 992.8 981.9
15 16.09 СЗ 2 50 км 9/9 600 м
[]
+10.3 +7.2 81 +9 +9 994.6 983.6
18 16.09 СЗ 2 24 км слаб. ливневой дождь 10/10 1500 м
[]
+8.2 +8.1 99 +6 +6 996.2 985.1 +8.1 +12.6 1
21 16.09 З 3 9000 м дымка 6/4 200 м
[]
+7.1 +7.0 99 +4 +4 997.2 986.1
00 17.09 З 3 6000 м дымка 9/1 100 м
[]
+5.6 +5.5 99 +2 +2 997.2 986.0
03 17.09 З 3 6000 м дымка 9/0
[]
+4.3 +4.3 100 0 0 997.1 985.8
06 17.09 З 2 15 км ясно +4.2 +4.2 100 +1 +2 997.3 986.1 +3.7 +8.2
09 17.09 СЗ 3 45 км 6/6 1000 м
[]
+9.1 +5.6 79 +7 +8 997.5 986.4
12 17.09 СЗ 2 45 км 10/10 1000 м
[]
+10.4 +4.5 67 +9 +9 997.7 986.7
15 17.09 СЗ 2 50 км 9/9 1000 м
[]
+10.4 +4.2 65 +9 +9 997.4 986.4
18 17.09 С 2 50 км 10/10 1000 м
[]
+8.2 +5.7 84 +6 +6 998.1 987.0 +4.2 +11.2
21 17.09 СЗ 2 35 км в посл. час морось 10/10 1000 м
[]
+7.4 +6.6 95 +5 +5 998.8 987.7
00 18.09 С 2 21 км 9/1 1000 м
[]
+6.0 +5.8 99 +3 +3 999.6 988.4
03 18.09 С 2 50 км 9/5 1500 м
[]
+6.7 +6.1 96 +4 +4 1000.8 989.6
06 18.09 С 2 50 км 9/9 1000 м
[]
+7.7 +6.1 90 +6 +6 1002.7 991.6 +5.9 +8.2 0.1
09 18.09 С 3 45 км 6/6 1000 м
[]
+10.8 +4.8 66 +9 +11 1004.4 993.3
12 18.09 С 2 45 км 9/9 1000 м
[]
+11.0 +4.6 65 +10 +10 1005.9 994.8
15 18.09 С 3 50 км в посл. час морось 9/9 600 м
[]
+8.9 +3.0 66 +7 +7 1008.1 996.9
18 18.09 СЗ 3 50 км ясно +4.3 +2.8 90 +1 +1 1010.2 998.8 +4.3 +11.9 0.1

 

Местоположение метеостанции Эспо Нууксио (Финляндия): широта 60.29 долгота 24.57 высота над уровнем моря 90 м.

В архиве по умолчанию представлена погода в Эспо Нууксио за последнюю неделю. Архивные данные за месяц целиком и за предыдущие месяцы, начиная с января 2011 года, Вы можете получить, выбрав интересующий диапазон дат из раскрывающегося списка и нажав кнопку "Ввод!".


*Определитесь, кто Вы:
робот инопланетянин человек

Внимание! Время в таблицах - всемирное. Для получения местного времени необходимо прибавить поправку, которая равна 1 ч.

Смотрите также архив погоды в соседних городах и на ближайших метеорологических станциях:

Погода в Вихти (Финляндия) (17 км)
Погода в Эспо Тапиола (Финляндия) (17 км)
Погода в Хельсинки (Финляндия) (22 км)
Погода в Хельсинки университете (Финляндия) (24 км)
Погода в Хельсинки Кайсаниеми (Финляндия) (24 км)
Погода в Нурмиярви (Финляндия) (25 км)
Погода в Лохья Порла (Финляндия) (29 км)
Погода на Острове Хармая (Финляндия) (31 км)
Погода в Хювинкяа (Финляндия) (37 км)
Погода на Хельсинском маяке (Финляндия) (43 км)

Пояснения к столбцам:

Ветер - указаны скорость ветра в м/с - средняя за 10 мин, порывы в срок и между сроками (в фигурных скобках) и направление, откуда дует ветер: С - северный, СВ - северо-восточный, В - восточный, ЮВ - юго-восточный, Ю - южный, ЮЗ - юго-западный, З - западный, СЗ - северо-западный.
Видимость - горизонтальная дальность видимости в метрах или километрах. При видимости от 1 до 10 км при отсутствии осадков обычно наблюдается дымка, при ухудшении видимости до 1 км и менее - туман. В сухую погоду видимость может ухудшаться дымом, пылью или мглою.
Явления - указаны атмосферные явления, наблюдавшиеся в срок или в последний час перед сроком; фигурными скобками обозначены явления, наблюдавшиеся между сроками (за 1-3 часа до срока); квадратными скобками обозначены град или гололедные отложения с указанием их диаметра в мм.
Облачность - указаны через наклонную черту общая и нижняя облачность в баллах и высота нижней границы облаков в метрах; квадратными скобками обозначены формы облаков: Ci - перистые, Cs - перисто-слоистые, Cc - перисто-кучевые, Ac - высококучевые, As - высокослоистые, Sc - слоисто-кучевые, Ns - слоисто-дождевые, Cu - кучевые, Cb - кучево-дождевые. Подробнее классификацию облаков см. в Атласе облаков (PDF).
T - Температура воздуха - температура, измеренная на высоте 2 м над землей.
Td - Температура точки росы - температура, при понижении до которой содержащийся в воздухе водяной пар достигнет насыщения.
f - Относительная влажность воздуха - влажноcть воздуха, измеренная на высоте 2 м над землей.
Te - Эффективная температура - температура, которую ощущает одетый по сезону человек в тени. Характеристика душности погоды. При расчете учитывается влияние влажности воздуха и скорости ветра на теплоощущения человека.
Tes - Эффективная температура на солнце - температура, которую ощущает человек, с поправкой на солнечный нагрев. Характеристика знойности погоды. Зависит от высоты солнца над горизонтом, облачности и скорости ветра. Ночью, в пасмурную погоду, а также при ветре 12 м/с и более поправка равна нулю.
P - Атмосферное давление - приведенное к уровню моря атмосферное давление.
Po - Атмосферное давление - измеренное на уровне метеостанции атмосферное давление.
Tmin - Минимальная температура - минимум температуры воздуха на высоте 2 м над землей.
Tmax - Максимальная температура - максимум температуры воздуха на высоте 2 м над землей.
R - Количество осадков - Количество выпавших осадков за период времени, мм. При наведении курсора мыши на число - период времени, за который выпало указанное количество осадков.
R24 - Количество осадков - Количество выпавших осадков за 24 часа, мм.
S - Снежный покров - Высота снежного покрова, см. При наведении курсора мыши на число - состояние снежного покрова и степень покрытия местности в баллах.